Regional Weather Roundup
Issued by NWS

Home | Current Version | Previous Version | Text Only | Print | Product List | Glossary On
Versions: 1 2 3 4 5 6 7 8 9 10 11 12 13 14 15 16 17 18 19 20 21 22 23 24 25 26 27 28
000
ASUS46 KSEW 260410
RWRWA

WASHINGTON REGIONAL WEATHER ROUNDUP
NATIONAL WEATHER SERVICE SEATTLE WA
900 PM PDT SAT MAR 25 2017

NOTE:"FAIR" INDICATES FEW OR NO CLOUDS BELOW 12,000 FEET WITH NO
SIGNIFICANT WEATHER AND/OR OBSTRUCTIONS TO VISIBILITY.

WAZ507-509-555>559-260500-
SEATTLE, TACOMA, EVERETT, AND VICINITY

CITY           SKY/WX    TMP DP  RH WIND       PRES   REMARKS
EVERETT        MOCLDY    43  39  86 NE3       30.05F
BOEING FIELD   MOCLDY    47  35  63 S7        30.06F
RENTON         CLOUDY    47  41  80 E5        30.06F
SEATAC AIRPORT MOCLDY    46  34  62 S3        30.06F
JBLM-MCCHORD   CLOUDY    45  44  98 CALM      30.06F
PUYALLUP         N/A     45  41  87 CALM      30.06F
BREMERTON      CLOUDY    41  34  75 SE3       30.09S
JBLM-FT LEWIS  CLOUDY    46  45  97 E3        30.06F
TACOMA NARROWS CLOUDY    46  34  62 CALM      30.06F
$$

WAZ001-503-506-510-514-515-260500-
NORTH INTERIOR

CITY           SKY/WX    TMP DP  RH WIND       PRES   REMARKS
BELLINGHAM     CLOUDY    46  39  76 SE8       30.04F
FRIDAY HARBOR  CLOUDY    44  37  76 CALM      30.05F
EASTSOUND      CLOUDY    45  37  76 S5        30.03F
PORT ANGELES   CLOUDY    40  40 100 CALM      30.05F
EDIZ HOOK      MOCLDY    44  39  82 S5        30.05S
PORT TOWNSEND  CLOUDY    41  41 100 CALM      30.06F
NAS WHIDBEY    CLOUDY    44  39  82 CALM      30.09F
ARLINGTON      MOCLDY    41  32  70 CALM      30.08F
BURLINGTON     CLOUDY    45  41  87 CALM      30.06F
$$

WAZ020-022-039-040-504-511-512-260500-
SOUTHWEST INTERIOR

CITY           SKY/WX    TMP DP  RH WIND       PRES   REMARKS
SHELTON        CLOUDY    43  36  76 CALM      30.04F
OLYMPIA        CLOUDY    44  38  79 CALM      30.07F
CHEHALIS       CLOUDY    46  41  81 CALM      30.06S
KELSO          MOCLDY    45  42  89 CALM      30.08S
VANCOUVER      CLOUDY    48  43  82 CALM      30.07S
SCAPPOOSE, OR  CLOUDY    45  43  93 CALM      30.07F
PORTLAND, OR   CLOUDY    48  41  76 CALM      30.07F
$$

WAZ021-516-517-260500-
WASHINGTON COAST

CITY           SKY/WX    TMP DP  RH WIND       PRES   REMARKS
FORKS          CLOUDY    41  36  82 E5        30.02F
HOQUIAM        CLOUDY    45  38  76 NE5       30.04F
ASTORIA, OR    CLOUDY    46  38  73 SE5       30.04F
$$

WAZ019-023-024-040-567>569-260500-
CASCADE MOUNTAINS AND COLUMBIA GORGE

CITY           SKY/WX    TMP DP  RH WIND       PRES   REMARKS
STAMPEDE PASS  NOT AVBL
TROUTDALE, OR  CLOUDY    50  43  77 SE6       30.07S
THE DALLES, OR MOCLDY    50  38  63 W3        30.05S
$$

WAZ026-027-041>044-520-521-260500-
EAST SLOPES

CITY           SKY/WX    TMP DP  RH WIND       PRES   REMARKS
OMAK           MOCLDY    44  26  49 CALM      29.97R
WENATCHEE      CLOUDY    46  31  55 NW9       29.99S
ELLENSBURG     CLOUDY    42  33  70 NW10      30.01R
YAKIMA         CLOUDY    47  33  58 CALM      30.01S
SUNNYSIDE ARPT CLOUDY    44  34  67 NE3       30.02S
$$

WAZ028-034-035-260500-
COLUMBIA BASIN

CITY           SKY/WX    TMP DP  RH WIND       PRES   REMARKS
EPHRATA        CLOUDY    48  27  44 N8        29.98S
MOSES LAKE     CLOUDY    49  30  48 W8        29.99S
PASCO          CLOUDY    50  33  52 S12       30.03S
HERMISTON, OR  MOCLDY    49  37  63 SW7       30.03S
$$

WAZ036>038-260500-
NORTHEAST WASHINGTON

CITY           SKY/WX    TMP DP  RH WIND       PRES   REMARKS
SPOKANE GEIGER PTCLDY    40  34  79 SE6       29.99
SPOKANE FELTS  CLOUDY    42  36  79 CALM      30.00R
FAIRCHILD AFB  CLEAR     39  29  67 S8        29.98R
COEURDALENE,ID MOCLDY    41  33  73 S9        30.00R
DEER PARK      PTCLDY    36  28  73 SE7       29.99R
$$

WAZ029>033-260500-
SOUTHEAST WASHINGTON

CITY           SKY/WX    TMP DP  RH WIND       PRES   REMARKS
PULLMAN        PTCLDY    41  34  76 SW3       30.04R
LEWISTON, ID   PTCLDY    45  35  68 S3        30.04S
WALLA WALLA    MOCLDY    47  38  71 SE6       30.03R
PENDLETON, OR  CLOUDY    46  39  76 W7        30.03R
$$




USA.gov is the U.S. government's official web portal to all federal, state and local government web resources and services.